Ypsilanti, MI

2:57 AM EST on February 21, 2018 (GMT -0500)
Willow Run

Weather History for KYIP - February, 2013

Change the Weather History Date:

Tuesday, February 5, 2013

  Actual Average Record
Temperature  
Mean Temperature 22 °F -  
Max Temperature 30 °F 30 °F 52 °F (1991)
Min Temperature 15 °F 16 °F -8 °F (2009)
Degree Days  
Heating Degree Days 42    
Moisture  
Dew Point 18 °F    
Average Humidity 78    
Maximum Humidity 88    
Minimum Humidity 66    
Precipitation  
Precipitation 0.00 in - - ()
Sea Level Pressure  
Sea Level Pressure 29.89 in    
Wind  
Wind Speed 5 mph (SSW)    
Max Wind Speed 17 mph    
Max Gust Speed 22 mph    
Visibility 5 miles    
Events Snow    
Averages and records for this station are not official NWS values.
T = Trace of Precipitation, MM = Missing Value Source: NWS Daily Summary

Daily Weather History Graph

Daily Weather History Graph

Search for Another Location

Airport or City:

Trip Planner

Search our weather history database for the weather conditions in past years. The results will help you decide how hot, cold, wet, or windy it might be!

Date:

Astronomy

Feb. 05, 2013 Rise Set
Actual Time 7:42 AM EST 5:54 PM EST
Civil Twilight 7:13 AM EST 6:23 PM EST
Nautical Twilight 6:40 AM EST 6:56 PM EST
Astronomical Twilight 6:07 AM EST 7:29 PM EST
Moon 3:25 AM EST (2/5) 1:08 PM EST (2/5)
Length of Visible Light 11h 10m
Length of Day
10h 11m
Waning Crescent, 27% of the Moon is Illuminated
Feb 5
Waning Crescent
Feb 10
New
Feb 17
First Quarter
Feb 25
Full
Mar 4
Last Quarter

Hourly Weather History & Observations

Time (EST) Temp. Windchill Dew Point Humidity Pressure Visibility Wind Dir Wind Speed Gust Speed Precip Events Conditions
12:53 AM 21.0 °F - 15.1 °F 78% 29.95 in 7.0 mi Calm Calm - N/A   Overcast
1:53 AM 21.0 °F - 15.1 °F 78% 29.93 in 7.0 mi Calm Calm - N/A   Overcast
2:53 AM 21.0 °F - 16.0 °F 81% 29.94 in 6.0 mi Calm Calm - N/A   Haze
3:53 AM 21.0 °F - 16.0 °F 81% 29.94 in 4.0 mi Calm Calm - N/A   Haze
4:53 AM 21.0 °F - 16.0 °F 81% 29.92 in 5.0 mi Calm Calm - N/A   Haze
5:42 AM 21.2 °F - 15.8 °F 80% 29.91 in 7.0 mi Calm Calm - N/A   Overcast
5:53 AM 19.9 °F 14.9 °F 15.1 °F 81% 29.94 in 6.0 mi SSE 3.5 mph - N/A   Haze
6:53 AM 19.9 °F - 14.0 °F 78% 29.93 in 6.0 mi Calm Calm - N/A   Haze
7:53 AM 15.1 °F 7.7 °F 10.9 °F 84% 29.95 in 6.0 mi SW 4.6 mph - N/A   Overcast
8:34 AM 15.8 °F - 12.2 °F 86% 29.92 in 5.0 mi Calm Calm - N/A   Scattered Clouds
8:53 AM 15.1 °F - 12.0 °F 88% 29.96 in 2.5 mi Calm Calm - N/A   Clear
9:04 AM 15.8 °F - 10.4 °F 79% 29.93 in 5.0 mi Calm Calm - N/A   Clear
9:53 AM 19.9 °F 13.4 °F 15.1 °F 81% 29.95 in 5.0 mi South 4.6 mph - N/A   Haze
10:53 AM 23.0 °F 11.7 °F 15.1 °F 72% 29.92 in 8.0 mi South 11.5 mph - N/A   Overcast
11:53 AM 24.1 °F 14.4 °F 16.0 °F 71% 29.90 in 8.0 mi South 9.2 mph - N/A   Scattered Clouds
12:53 PM 25.0 °F 13.1 °F 15.1 °F 66% 29.88 in 10.0 mi SW 13.8 mph - N/A   Overcast
1:53 PM 26.1 °F 14.5 °F 17.1 °F 69% 29.86 in 10.0 mi SSW 13.8 mph - N/A   Overcast
2:53 PM 27.0 °F 15.2 °F 17.1 °F 66% 29.84 in 8.0 mi SSW 15.0 mph - N/A   Overcast
3:53 PM 28.0 °F 19.3 °F 18.0 °F 66% 29.83 in 8.0 mi SSW 9.2 mph - N/A   Overcast
4:53 PM 28.0 °F 18.6 °F 19.0 °F 69% 29.84 in 8.0 mi SSW 10.4 mph - N/A   Overcast
5:25 PM 28.4 °F 18.0 °F 19.4 °F 69% 29.82 in 1.5 mi SSW 12.7 mph - 0.00 in Snow Light Snow
5:53 PM 27.0 °F 16.7 °F 19.9 °F 75% 29.85 in 1.5 mi SSW 11.5 mph - 0.00 in Snow Light Snow
6:00 PM 26.6 °F 16.8 °F 21.2 °F 80% 29.82 in 0.5 mi SSW 10.4 mph - 0.00 in Snow Snow
6:13 PM 26.6 °F 16.8 °F 21.2 °F 80% 29.83 in 1.0 mi SSW 10.4 mph - 0.00 in Snow Light Snow
6:20 PM 26.6 °F 16.2 °F 21.2 °F 80% 29.83 in 2.0 mi SSW 11.5 mph - 0.00 in Snow Light Snow
6:35 PM 26.6 °F 17.5 °F 21.2 °F 80% 29.84 in 4.0 mi SSW 9.2 mph - 0.00 in   Haze
6:53 PM 26.1 °F 16.2 °F 21.0 °F 81% 29.86 in 4.0 mi SSW 10.4 mph - 0.00 in   Haze
7:46 PM 26.6 °F 16.2 °F 21.2 °F 80% 29.86 in 5.0 mi SW 11.5 mph - N/A   Haze
7:53 PM 27.0 °F 17.3 °F 21.9 °F 81% 29.88 in 5.0 mi SSW 10.4 mph - N/A   Haze
8:03 PM 26.6 °F 17.5 °F 21.2 °F 80% 29.86 in 4.0 mi SSW 9.2 mph - N/A   Haze
8:11 PM 28.4 °F 18.0 °F 21.2 °F 74% 29.86 in 4.0 mi SSW 12.7 mph - N/A   Haze
8:53 PM 28.0 °F 19.3 °F 21.9 °F 78% 29.90 in 4.0 mi SW 9.2 mph - N/A   Haze
9:39 PM 28.4 °F 21.2 °F 23.0 °F 80% 29.88 in 4.0 mi SW 6.9 mph - N/A   Haze
9:53 PM 28.0 °F 20.8 °F 23.0 °F 81% 29.91 in 4.0 mi SW 6.9 mph - N/A   Haze
10:31 PM 28.4 °F 20.4 °F 23.0 °F 80% 29.90 in 4.0 mi SW 8.1 mph - N/A   Haze
10:53 PM 28.9 °F 20.4 °F 24.1 °F 82% 29.93 in 3.0 mi SW 9.2 mph - N/A   Haze
11:43 PM 30.2 °F 21.9 °F 24.8 °F 80% 29.93 in 5.0 mi West 9.2 mph - N/A   Haze
11:53 PM 30.9 °F 19.4 °F 23.0 °F 72% 29.95 in 7.0 mi NW 17.3 mph 21.9 mph N/A   Overcast